TimeMDT,TemperatureF,Dew PointF,Humidity,Sea Level PressureIn,VisibilityMPH,Wind Direction,Wind SpeedMPH,Gust SpeedMPH,PrecipitationIn,Events,Conditions,WindDirDegrees,DateUTC
12:53 AM,52.0,30.0,43,29.70,10.0,ENE,3.5,-,N/A,,Clear,70,2013-06-24 06:53:00
1:53 AM,48.9,28.9,46,29.70,10.0,East,6.9,-,N/A,,Clear,80,2013-06-24 07:53:00
2:53 AM,45.0,28.9,53,29.70,10.0,ENE,3.5,-,N/A,,Clear,70,2013-06-24 08:53:00
3:53 AM,48.0,28.9,48,29.68,10.0,ESE,3.5,-,N/A,,Clear,110,2013-06-24 09:53:00
4:53 AM,45.0,28.0,52,29.70,10.0,ENE,6.9,-,N/A,,Clear,60,2013-06-24 10:53:00
5:53 AM,45.0,28.0,52,29.71,10.0,North,3.5,-,N/A,,Clear,360,2013-06-24 11:53:00
6:53 AM,48.9,30.0,48,29.72,10.0,Calm,Calm,-,N/A,,Clear,0,2013-06-24 12:53:00
7:41 AM,55.4,32.0,41,29.96,7.0,Calm,Calm,-,N/A,,Partly Cloudy,0,2013-06-24 13:41:00
7:53 AM,57.0,30.9,37,29.70,10.0,NNE,3.5,-,N/A,,Clear,30,2013-06-24 13:53:00
8:15 AM,59.0,33.8,39,29.97,4.0,Calm,Calm,-,N/A,,Haze,0,2013-06-24 14:15:00
8:53 AM,64.9,30.0,27,29.71,10.0,NNE,4.6,-,N/A,,Clear,30,2013-06-24 14:53:00
9:53 AM,70.0,30.0,23,29.73,8.0,South,13.8,20.7,N/A,,Clear,190,2013-06-24 15:53:00
10:53 AM,75.0,26.1,16,29.72,7.0,South,15.0,23.0,N/A,,Clear,190,2013-06-24 16:53:00
11:53 AM,77.0,19.9,12,29.71,9.0,SSW,17.3,25.3,N/A,,Clear,200,2013-06-24 17:53:00
12:53 PM,79.0,21.0,12,29.69,5.0,South,16.1,28.8,N/A,,Haze,190,2013-06-24 18:53:00
1:53 PM,80.1,24.1,13,29.69,4.0,SSW,23.0,28.8,N/A,,Haze,200,2013-06-24 19:53:00
2:53 PM,80.1,23.0,12,29.68,5.0,SSW,11.5,24.2,N/A,,Haze,200,2013-06-24 20:53:00
3:53 PM,79.0,25.0,14,29.68,7.0,South,18.4,23.0,N/A,,Clear,180,2013-06-24 21:53:00
4:53 PM,80.1,26.1,14,29.67,6.0,South,15.0,26.5,N/A,,Haze,190,2013-06-24 22:53:00
5:53 PM,75.9,26.1,16,29.68,7.0,South,13.8,27.6,N/A,,Clear,190,2013-06-24 23:53:00
6:53 PM,75.0,26.1,16,29.69,10.0,SSW,12.7,20.7,N/A,,Scattered Clouds,210,2013-06-25 00:53:00
7:53 PM,73.9,24.1,16,29.68,10.0,SSW,12.7,31.1,N/A,,Scattered Clouds,210,2013-06-25 01:53:00
8:53 PM,73.0,24.1,16,29.69,6.0,WSW,26.5,38.0,N/A,,Haze,250,2013-06-25 02:53:00
9:53 PM,71.1,27.0,19,29.71,2.5,WSW,28.8,42.6,N/A,,Haze,240,2013-06-25 03:53:00
10:07 PM,71.6,26.6,19,30.01,9.0,SW,26.5,39.1,N/A,,Overcast,230,2013-06-25 04:07:00
10:53 PM,70.0,28.0,21,29.70,10.0,SSW,8.1,-,N/A,,Overcast,210,2013-06-25 04:53:00
11:53 PM,68.0,28.9,23,29.70,10.0,South,5.8,-,N/A,,Overcast,170,2013-06-25 05:53:00